Simultaneous Nadir Overpasses (SNOs) Predictions

Prediction of SNOs between GOES-15 and METOP-A Satellite Orbit:

Table of predicted SNOs for the next 14.0 days since TLE Epoch: 9/11/2021
Index Date Time (GOES-15) GOES-15 Lat,Lon METOP-A Lat,Lon Distance(km) Time Diff (sec)
1 09/12/2021 04:15:14 0.10,-128.14 0.98,-124.07 463.82 80
2 09/13/2021 16:31:26 -0.14,-128.08 -0.01,-128.68 68.28 80
3 09/14/2021 16:13:24 -0.11,-128.05 -1.04,-123.68 496.73 80
4 09/16/2021 04:29:44 0.15,-128.04 0.07,-128.33 33.44 80
5 09/18/2021 16:27:54 -0.17,-127.94 -0.14,-127.95 3.53 80
6 09/21/2021 04:28:54 0.19,-127.90 0.27,-127.62 33.02 80
7 09/23/2021 16:27:04 -0.20,-127.79 -0.33,-127.23 63.74 80
